| time (UTC) | temp C | wind direction | speed KPH | gust KPH | rain 1hr cm | rain 24hr cm | rain mn cm | humidity % | barometer mb |
| 20260502220034 | 28 | 89 | 6.4 | 8.0 | 0.00 | 0.00 | 0.00 | 37 | 1008.0 |
| 20260502215034 | 28 | 89 | 6.4 | 8.0 | 0.00 | 0.00 | 0.00 | 37 | 1008.0 |
| 20260502214034 | 27 | 89 | 6.4 | 8.0 | 0.00 | 0.00 | 0.00 | 37 | 1008.0 |
| 20260502213033 | 33 | 91 | 11.3 | 11.3 | 0.00 | 0.00 | 0.00 | 35 | 1008.0 |
| 20260502212033 | 33 | 91 | 11.3 | 11.3 | 0.00 | 0.00 | 0.00 | 35 | 1008.0 |
| 20260502211033 | 32 | 91 | 11.3 | 11.3 | 0.00 | 0.00 | 0.00 | 35 | 1008.0 |
| 20260502210033 | 32 | 91 | 11.3 | 11.3 | 0.00 | 0.00 | 0.00 | 35 | 1008.0 |
| 20260502205032 | 32 | 91 | 11.3 | 11.3 | 0.00 | 0.00 | 0.00 | 35 | 1008.0 |
| 20260502204032 | 31 | 91 | 11.3 | 11.3 | 0.00 | 0.00 | 0.00 | 35 | 1008.0 |
| 20260502203032 | 31 | 91 | 11.3 | 11.3 | 0.00 | 0.00 | 0.00 | 35 | 1008.0 |
| 20260502202031 | 30 | 91 | 11.3 | 11.3 | 0.00 | 0.00 | 0.00 | 35 | 1008.0 |
| 20260502201031 | 30 | 91 | 11.3 | 11.3 | 0.00 | 0.00 | 0.00 | 35 | 1008.0 |
| 20260502200031 | 29 | 91 | 11.3 | 11.3 | 0.00 | 0.00 | 0.00 | 35 | 1008.0 |
| 20260502195030 | 29 | 91 | 11.3 | 11.3 | 0.00 | 0.00 | 0.00 | 35 | 1008.0 |
| 20260502194030 | 28 | 91 | 11.3 | 11.3 | 0.00 | 0.00 | 0.00 | 35 | 1008.0 |
| 20260502193030 | 28 | 95 | 9.7 | 9.7 | 0.00 | 0.00 | 0.00 | 40 | 1009.0 |
| 20260502192029 | 28 | 95 | 9.7 | 9.7 | 0.00 | 0.00 | 0.00 | 40 | 1009.0 |
| 20260502191029 | 28 | 95 | 9.7 | 9.7 | 0.00 | 0.00 | 0.00 | 41 | 1009.0 |
| 20260502190029 | 28 | 95 | 9.7 | 9.7 | 0.00 | 0.00 | 0.00 | 42 | 1009.0 |
| 20260502185028 | 35 | 91 | 4.8 | 8.0 | 0.00 | 0.00 | 0.00 | 60 | 1009.0 |
| 20260502184028 | 34 | 91 | 4.8 | 8.0 | 0.00 | 0.00 | 0.00 | 60 | 1009.0 |
| 20260502183028 | 33 | 91 | 4.8 | 8.0 | 0.00 | 0.00 | 0.00 | 60 | 1009.0 |
| 20260502182027 | 33 | 91 | 4.8 | 8.0 | 0.00 | 0.00 | 0.00 | 60 | 1010.0 |
| 20260502181027 | 32 | 91 | 4.8 | 8.0 | 0.00 | 0.00 | 0.00 | 60 | 1010.0 |
| 20260502164024 | 28 | 91 | 4.8 | 8.0 | 0.00 | 0.00 | 0.00 | 60 | 1012.0 |
| 20260502163024 | 28 | 91 | 4.8 | 8.0 | 0.00 | 0.00 | 0.00 | 60 | 1013.0 |
| 20260502162024 | 27 | 91 | 4.8 | 8.0 | 0.00 | 0.00 | 0.00 | 60 | 1013.0 |
| 20260502161023 | 27 | 91 | 4.8 | 8.0 | 0.00 | 0.00 | 0.00 | 60 | 1013.0 |
| 20260502152021 | 28 | 54 | 1.6 | 4.8 | 0.00 | 0.00 | 0.00 | 74 | 1013.0 |
| 20260502151021 | 28 | 54 | 1.6 | 4.8 | 0.00 | 0.00 | 0.00 | 74 | 1013.0 |
| 20260502123016 | 20 | 54 | 3.2 | 4.8 | 0.00 | 0.00 | 0.00 | 74 | 1013.0 |
| 20260502122016 | 21 | 35 | 1.6 | 1.6 | 0.00 | 0.00 | 0.00 | 74 | 1013.0 |
| 20260502121016 | 21 | 35 | 1.6 | 1.6 | 0.00 | 0.00 | 0.00 | 74 | 1013.0 |
| 20260502115015 | 20 | 35 | 1.6 | 1.6 | 0.00 | 0.00 | 0.00 | 74 | 1013.0 |
| 20260502114015 | 20 | 35 | 1.6 | 1.6 | 0.00 | 0.00 | 0.00 | 74 | 1013.0 |
| 20260502113014 | 20 | 35 | 1.6 | 1.6 | 0.00 | 0.00 | 0.00 | 74 | 1013.0 |
| 20260502112014 | 19 | 35 | 1.6 | 1.6 | 0.00 | 0.00 | 0.00 | 74 | 1012.0 |
| 20260502111014 | 18 | 35 | 1.6 | 1.6 | 0.00 | 0.00 | 0.00 | 74 | 1012.0 |
| 20260502110013 | 18 | 35 | 1.6 | 1.6 | 0.00 | 0.00 | 0.00 | 74 | 1012.0 |
| 20260502105013 | 18 | 35 | 1.6 | 1.6 | 0.00 | 0.00 | 0.00 | 74 | 1012.0 |
| 20260502104013 | 17 | 35 | 1.6 | 1.6 | 0.00 | 0.00 | 0.00 | 74 | 1012.0 |
| 20260502103013 | 17 | 35 | 3.2 | 3.2 | 0.00 | 0.00 | 0.00 | 74 | 1012.0 |
| 20260502102013 | 17 | 35 | 3.2 | 3.2 | 0.00 | 0.00 | 0.00 | 74 | 1012.0 |
| 20260502101012 | 21 | 48 | 1.6 | 1.6 | 0.00 | 0.00 | 0.00 | 74 | 1012.0 |
| 20260502091010 | 21 | 39 | 1.6 | 1.6 | 0.00 | 0.00 | 0.00 | 74 | 1012.0 |
| 20260502071006 | 17 | 54 | 3.2 | 3.2 | 0.00 | 0.00 | 0.00 | 74 | 1012.0 |
| 20260502070006 | 21 | 71 | 1.6 | 4.8 | 0.00 | 0.00 | 0.00 | 75 | 1012.0 |
| 20260502065005 | 21 | 71 | 1.6 | 4.8 | 0.00 | 0.00 | 0.00 | 75 | 1012.0 |
| 20260502064005 | 21 | 71 | 1.6 | 4.8 | 0.00 | 0.00 | 0.00 | 75 | 1012.0 |
| 20260502063005 | 20 | 71 | 1.6 | 4.8 | 0.00 | 0.00 | 0.00 | 75 | 1013.0 |
| 20260502062005 | 20 | 71 | 3.2 | 4.8 | 0.00 | 0.00 | 0.00 | 75 | 1013.0 |
| 20260502061004 | 21 | 71 | 1.6 | 4.8 | 0.00 | 0.00 | 0.00 | 76 | 1013.0 |
| 20260502060004 | 21 | 71 | 3.2 | 4.8 | 0.00 | 0.00 | 0.00 | 76 | 1013.0 |
| 20260502055004 | 21 | 71 | 3.2 | 4.8 | 0.00 | 0.00 | 0.00 | 76 | 1013.0 |
| 20260502054003 | 22 | 71 | 3.2 | 4.8 | 0.00 | 0.00 | 0.00 | 74 | 1013.0 |
| 20260502053003 | 22 | 74 | 4.8 | 4.8 | 0.00 | 0.00 | 0.00 | 70 | 1013.0 |
| 20260502052003 | 22 | 74 | 4.8 | 4.8 | 0.00 | 0.00 | 0.00 | 70 | 1013.0 |
| 20260502051002 | 21 | 74 | 4.8 | 4.8 | 0.00 | 0.00 | 0.00 | 70 | 1013.0 |
| 20260502050002 | 21 | 74 | 4.8 | 4.8 | 0.00 | 0.00 | 0.00 | 70 | 1013.0 |
| 20260502045002 | 20 | 74 | 4.8 | 4.8 | 0.00 | 0.00 | 0.00 | 70 | 1013.0 |
| 20260502044001 | 20 | 74 | 4.8 | 4.8 | 0.00 | 0.00 | 0.00 | 70 | 1013.0 |
| 20260502043001 | 23 | 67 | 4.8 | 1.6 | 0.00 | 0.00 | 0.00 | 64 | 1013.0 |
| 20260502042001 | 22 | 67 | 4.8 | 1.6 | 0.00 | 0.00 | 0.00 | 64 | 1013.0 |
| 20260502041000 | 22 | 67 | 4.8 | 1.6 | 0.00 | 0.00 | 0.00 | 64 | 1013.0 |
| 20260502040000 | 21 | 67 | 4.8 | 1.6 | 0.00 | 0.00 | 0.00 | 64 | 1013.0 |
| 20260502034959 | 21 | 67 | 4.8 | 1.6 | 0.00 | 0.00 | 0.00 | 64 | 1013.0 |
| 20260502033959 | 20 | 67 | 4.8 | 1.6 | 0.00 | 0.00 | 0.00 | 64 | 1013.0 |
| 20260502032958 | 20 | 67 | 4.8 | 1.6 | 0.00 | 0.00 | 0.00 | 64 | 1012.0 |
| 20260502031958 | 23 | 67 | 4.8 | 1.6 | 0.00 | 0.00 | 0.00 | 66 | 1012.0 |
| 20260502030958 | 23 | 67 | 4.8 | 1.6 | 0.00 | 0.00 | 0.00 | 66 | 1012.0 |
| 20260502025958 | 22 | 67 | 4.8 | 1.6 | 0.00 | 0.00 | 0.00 | 66 | 1012.0 |
| 20260502024957 | 22 | 67 | 4.8 | 1.6 | 0.00 | 0.00 | 0.00 | 66 | 1012.0 |
| 20260502023957 | 23 | 70 | 4.8 | 1.6 | 0.00 | 0.00 | 0.00 | 61 | 1012.0 |
| 20260502022956 | 23 | 70 | 4.8 | 1.6 | 0.00 | 0.00 | 0.00 | 61 | 1011.0 |
| 20260502021956 | 22 | 70 | 4.8 | 1.6 | 0.00 | 0.00 | 0.00 | 61 | 1011.0 |
| 20260502020956 | 22 | 70 | 4.8 | 1.6 | 0.00 | 0.00 | 0.00 | 61 | 1011.0 |
| 20260502015956 | 21 | 70 | 4.8 | 3.2 | 0.00 | 0.00 | 0.00 | 61 | 1011.0 |
| 20260502014955 | 24 | 75 | 4.8 | 1.6 | 0.00 | 0.00 | 0.00 | 55 | 1011.0 |
| 20260502013955 | 23 | 75 | 4.8 | 1.6 | 0.00 | 0.00 | 0.00 | 55 | 1011.0 |
| 20260502012955 | 23 | 75 | 4.8 | 3.2 | 0.00 | 0.00 | 0.00 | 55 | 1010.0 |
| 20260502011954 | 25 | 75 | 4.8 | 1.6 | 0.00 | 0.00 | 0.00 | 57 | 1010.0 |
| 20260502010954 | 24 | 75 | 4.8 | 3.2 | 0.00 | 0.00 | 0.00 | 57 | 1010.0 |
| 20260502005954 | 25 | 75 | 4.8 | 3.2 | 0.00 | 0.00 | 0.00 | 58 | 1010.0 |
| 20260502004953 | 25 | 75 | 4.8 | 3.2 | 0.00 | 0.00 | 0.00 | 58 | 1010.0 |
| 20260502003953 | 26 | 97 | 1.6 | 1.6 | 0.00 | 0.00 | 0.00 | 53 | 1010.0 |
| 20260502002953 | 26 | 97 | 1.6 | 1.6 | 0.00 | 0.00 | 0.00 | 53 | 1009.0 |
| 20260502001953 | 25 | 97 | 1.6 | 1.6 | 0.00 | 0.00 | 0.00 | 53 | 1009.0 |
| 20260502000952 | 25 | 97 | 1.6 | 1.6 | 0.00 | 0.00 | 0.00 | 53 | 1009.0 |
| 20260501235952 | 24 | 97 | 1.6 | 1.6 | 0.00 | 0.00 | 0.00 | 53 | 1009.0 |
| 20260501234952 | 23 | 97 | 3.2 | 3.2 | 0.00 | 0.00 | 0.00 | 53 | 1009.0 |
| 20260501233952 | 26 | 114 | 8.0 | 16.1 | 0.00 | 0.00 | 0.00 | 48 | 1009.0 |
| 20260501232951 | 26 | 114 | 8.0 | 16.1 | 0.00 | 0.00 | 0.00 | 48 | 1008.0 |
| 20260501231951 | 25 | 114 | 8.0 | 16.1 | 0.00 | 0.00 | 0.00 | 48 | 1008.0 |
| 20260501230951 | 28 | 114 | 8.0 | 16.1 | 0.00 | 0.00 | 0.00 | 50 | 1008.0 |
| 20260501225950 | 28 | 114 | 8.0 | 16.1 | 0.00 | 0.00 | 0.00 | 50 | 1008.0 |
| 20260501224950 | 27 | 114 | 8.0 | 16.1 | 0.00 | 0.00 | 0.00 | 50 | 1008.0 |
| 20260501223949 | 27 | 114 | 8.0 | 16.1 | 0.00 | 0.00 | 0.00 | 50 | 1008.0 |
| 20260501222949 | 31 | 103 | 12.9 | 12.9 | 0.00 | 0.00 | 0.00 | 40 | 1007.0 |
| 20260501221949 | 30 | 103 | 12.9 | 12.9 | 0.00 | 0.00 | 0.00 | 40 | 1007.0 |
| 20260501220948 | 30 | 103 | 12.9 | 12.9 | 0.00 | 0.00 | 0.00 | 40 | 1007.0 |